Regional Weather Roundup
Issued by NWS

Home | Current Version | Previous Version | Text Only | Print | Product List | Glossary Off
Versions: 1 2 3 4 5 6 7 8 9 10 11 12 13 14 15 16 17 18 19 20 21 22 23 24 25 26 27 28 29 30 31 32 33 34 35 36 37 38 39 40 41 42 43 44 45 46 47 48 49 50

000
ASUS43 KLOT 201808
RWRIL

ILLINOIS REGIONAL WEATHER ROUNDUP
NATIONAL WEATHER SERVICE CHICAGO/ROMEOVILLE IL
1200 PM CST SAT JAN 20 2018

NOTE: "FAIR" INDICATES FEW OR NO CLOUDS BELOW 12,000 FEET WITH NO
SIGNIFICANT WEATHER AND/OR OBSTRUCTIONS TO VISIBILITY.

* THESE STATIONS ARE NOT UNDER NWS QUALITY CONTROL. THEY ALSO MAY NOT
  REPORT WEATHER SUCH AS PRECIPITATION OR FOG.

ILZ001-002-007-009-015-016-024-201900-
NORTHWEST ILLINOIS

CITY           SKY/WX    TMP DP  RH WIND       PRES   REMARKS
MOLINE         FAIR      47  36  65 W12       29.91F
6HR MIN TEMP:  25; 6HR MAX TEMP:  47;

STERLING*      FAIR      44  35  70 W9        29.93F
SAVANNA*       FAIR      41  31  67 S7        29.92S
$$

ILZ003-004-008-010-011-017-018-201900-
NORTH CENTRAL ILLINOIS

CITY           SKY/WX    TMP DP  RH WIND       PRES   REMARKS
ROCKFORD       PTSUNNY   40  31  70 S6        29.93F
6HR MIN TEMP:  27; 6HR MAX TEMP:  42;

FREEPORT*      FAIR      40  31  70 CALM      29.92F
ROCHELLE*      FAIR      40  33  75 SW9       29.92F
DE KALB*       FAIR      38  33  82 S8        29.93F WCI  32
PERU*          FAIR      45  34  65 W9        29.94F
$$

ILZ005-006-012>014-019>023-201900-
NORTHEAST ILLINOIS

CITY           SKY/WX    TMP DP  RH WIND       PRES   REMARKS
CHICAGO-OHARE  PTSUNNY   42  30  62 SW8       29.92F
6HR MIN TEMP:  32; 6HR MAX TEMP:  42;

CHICAGO-MIDWAY PTSUNNY   43  32  65 W13       29.94F
6HR MIN TEMP:  33; 6HR MAX TEMP:  43;

AURORA         FAIR      40  32  73 SW8       29.93F
6HR MIN TEMP:  27; 6HR MAX TEMP:  41;

LANSING*       FAIR      42  35  75 SW8       29.96S
JOLIET*        FAIR      44  34  68 SW6       29.95F
WAUKEGAN       FAIR      44  31  60 SW8       29.90F
6HR MIN TEMP:  34; 6HR MAX TEMP:  44;

DUPAGE AIRPORT FAIR      40  32  73 SW12      29.92F
6HR MIN TEMP:  27; 6HR MAX TEMP:  40;

KANKAKEE*      FAIR     N/A N/A N/A SW13      29.98F
WHEELING       FAIR      44  31  60 SW7       29.93F
6HR MIN TEMP:  32; 6HR MAX TEMP:  44;

MORRIS*        FAIR      44  35  71 SW10      29.94F
ROMEOVILLE*    FAIR      42  33  72 W10       29.95F
NORTHERLY ISL    N/A     42  29  60 W9          N/A
$$

LMZ740>746-201900-
SOUTHERN LAKE MICHIGAN

STATION/POSITION SKY/WX   TEMP    WIND        PRES    VSBY  WAVE
                          AIR SEA DIR/SP/G                  HT/PER
                          (F)     (DEG/KT/KT) (MB)    (MI)  (FT/S)
HARRISON CRIB              42     240/  9/ 12   N/A
BURNHAM HARBOR             42     270/  7/ 12   N/A
CALUMET HARBOR             41     210/  9/ 14 1013.4F
BURNS HARBOR               40     210/ 13/ 16 1014.9F
MICHIGAN CITY              39     200/ 10/ 11   N/A
$$

ILZ025>027-034>036-040-047-049-050-058-095>099-201900-
WEST-CENTRAL ILLINOIS

CITY           SKY/WX    TMP DP  RH WIND       PRES   REMARKS
QUINCY         CLOUDY    48  40  73 SW8       29.95F
GALESBURG*     CLOUDY    43  39  86 SW13      29.95F
MACOMB*        CLOUDY    45  40  82 W15       29.98F
JACKSONVILLE*  CLOUDY    46  37  72 SW13      29.98F
PITTSFIELD*    CLOUDY    45  38  78 SW8       29.99F
$$

ILZ028>032-037-038-041>044-048-051>054-059>061-201900-
CENTRAL ILLINOIS

CITY           SKY/WX    TMP DP  RH WIND       PRES   REMARKS
PONTIAC        FAIR      44  40  86 SW14      29.96F
BLOOMINGTON    CLOUDY    41  35  79 SW10      29.98F
DECATUR        CLOUDY    42  36  79 SW12      30.01F
PEORIA         CLOUDY    44  36  73 SW12      29.96F
6HR MIN TEMP:  28; 6HR MAX TEMP:  44;

LACON*         FAIR      46  36  68 SW9       29.94F
LINCOLN*       CLOUDY    43  37  78 S3        29.99F
SPRINGFIELD    CLOUDY    47  38  71 SW10      30.00F
6HR MIN TEMP:  34; 6HR MAX TEMP:  47;

TAYLORVILLE    CLOUDY    42  34  74 S10       30.01F
6HR MIN TEMP:  30; 6HR MAX TEMP:  42;

$$

ILZ033-039-045-046-055>057-062-063-201900-
EAST-CENTRAL ILLINOIS

CITY           SKY/WX    TMP DP  RH WIND       PRES   REMARKS
CHAMPAIGN      CLOUDY    39  35  86 SW10      30.01F WCI  32
DANVILLE*      CLOUDY    38  32  79 SW9       29.99F WCI  31
RANTOUL*       CLOUDY    41  36  82 SW14      30.00F
MATTOON        CLOUDY    42  34  73 S9        30.02F
PARIS*         CLOUDY    40  33  76 SW12      30.05S
$$

ILZ079-100>102-201900-
SOUTHWEST ILLINOIS

CITY           SKY/WX    TMP DP  RH WIND       PRES   REMARKS
ALTON          CLOUDY    48  37  66 S6        30.02F
BELLEVILLE     CLOUDY    51  33  49 SW6       30.02F
CAHOKIA*       CLOUDY    52  37  56 VRB5      30.02F
SPARTA*        SUNNY     51  38  62 S9        30.05F
$$

ILZ064>066-069>071-074>076-080>082-084>086-088>090-092>094-201900-
SOUTH-CENTRAL ILLINOIS

CITY           SKY/WX    TMP DP  RH WIND       PRES   REMARKS
CARBONDALE     CLOUDY    46  38  73 SW20      30.08F
6HR MIN TEMP:  34; 6HR MAX TEMP:  47;

CAIRO*         CLOUDY    43  33  68 S7        30.13F
EFFINGHAM*     CLOUDY    46  35  64 S12       30.06F
MARION         CLOUDY    46  37  71 S12       30.10F
MT. VERNON     FAIR      50  39  66 SW13      30.07F
CENTRALIA*     SUNNY     50  37  62 W10       30.05F
SALEM*         FAIR      50  35  56 SW10      30.06F
METROPOLIS*    CLOUDY    45  33  61 S7        30.14F
$$

ILZ067-068-072-073-078-083-087-091-201900-
SOUTHEAST ILLINOIS

CITY           SKY/WX    TMP DP  RH WIND       PRES   REMARKS
LAWRENCEVILLE  FAIR      39  28  64 S10       30.09F WCI  32
FLORA*         FAIR      47  33  58 S8        30.07F
FAIRFIELD*     FAIR      46  32  58 S3        30.07F
HARRISBURG*    CLOUDY    46  40  81 SW12G20   30.10F
ROBINSON*      FAIR      42  30  62 SW10      30.09F
CARMI*         FAIR      46  40  79 SW15G26   30.08F
$$

ABBREVIATIONS USED IN REMARKS
   TC - TEMPERATURE IN CELSIUS
  WCI - WIND CHILL INDEX
   HX - HEAT INDEX
  VSB - VISIBILITY
$$





USA.gov is the U.S. government's official web portal to all federal, state and local government web resources and services.